Time,TemperatureF,DewpointF,PressureIn,WindDirection,WindDirectionDegrees,WindSpeedMPH,WindSpeedGustMPH,Humidity,HourlyPrecipIn,Conditions,Clouds,dailyrainin,SoftwareType,DateUTC
2013-05-10 00:03:00,55.0,54.0,29.88,SW,228,5.0,8.0,98,0.00,,,0.27,,2013-05-10 04:03:00,
2013-05-10 00:12:00,55.0,54.0,29.88,SW,228,5.0,8.0,98,0.00,,,0.27,,2013-05-10 04:12:00,
2013-05-10 00:23:00,55.0,54.0,29.88,SW,228,5.0,8.0,98,0.00,,,0.27,,2013-05-10 04:23:00,
2013-05-10 00:33:00,54.0,53.0,29.88,SSW,208,3.0,8.0,98,0.00,,,0.28,,2013-05-10 04:33:00,
2013-05-10 00:43:00,54.0,53.0,29.89,SSW,201,3.0,8.0,98,0.00,,,0.12,,2013-05-10 04:43:00,
2013-05-10 00:53:00,54.0,53.0,29.89,SSW,201,3.0,8.0,98,0.00,,,0.12,,2013-05-10 04:53:00,
2013-05-10 01:02:00,54.0,53.0,29.88,SW,214,4.0,9.0,98,0.00,,,0.12,,2013-05-10 05:02:00,
2013-05-10 01:12:00,54.0,53.0,29.88,SW,217,3.0,8.0,98,0.00,,,0.11,,2013-05-10 05:12:00,
2013-05-10 01:22:00,54.0,53.0,29.88,SW,217,3.0,8.0,98,0.00,,,0.11,,2013-05-10 05:22:00,
2013-05-10 01:32:00,54.0,53.0,29.88,SW,214,4.0,10.0,98,0.00,,,0.03,,2013-05-10 05:32:00,
2013-05-10 01:42:00,54.0,53.0,29.87,SSW,212,4.0,8.0,98,0.00,,,0.02,,2013-05-10 05:42:00,
2013-05-10 01:52:00,54.0,53.0,29.87,SSW,212,4.0,8.0,98,0.00,,,0.02,,2013-05-10 05:52:00,
2013-05-10 02:02:00,54.0,54.0,29.87,SSW,211,4.0,7.0,99,0.00,,,0.01,,2013-05-10 06:02:00,
2013-05-10 02:12:00,55.0,55.0,29.88,WSW,239,4.0,6.0,99,0.00,,,0.01,,2013-05-10 06:12:00,
2013-05-10 02:21:00,55.0,55.0,29.88,WSW,239,4.0,6.0,99,0.00,,,0.01,,2013-05-10 06:21:00,
2013-05-10 02:32:00,55.0,55.0,29.88,SW,232,4.0,9.0,99,0.00,,,0.01,,2013-05-10 06:32:00,
2013-05-10 02:42:00,55.0,55.0,29.88,SW,232,4.0,9.0,99,0.00,,,0.01,,2013-05-10 06:42:00,
2013-05-10 02:52:00,55.0,55.0,29.88,WSW,248,3.0,7.0,99,0.00,,,0.01,,2013-05-10 06:52:00,
2013-05-10 03:02:00,55.0,55.0,29.88,West,259,0.0,7.0,99,0.00,,,0.01,,2013-05-10 07:02:00,
2013-05-10 03:12:00,55.0,55.0,29.88,West,259,0.0,7.0,99,0.00,,,0.01,,2013-05-10 07:12:00,
2013-05-10 03:22:00,55.0,55.0,29.88,WSW,240,2.0,5.0,99,0.00,,,0.01,,2013-05-10 07:22:00,
2013-05-10 03:32:00,56.0,56.0,29.88,WSW,238,2.0,8.0,99,0.00,,,0.01,,2013-05-10 07:32:00,
2013-05-10 03:42:00,56.0,56.0,29.88,WSW,254,0.0,4.0,99,0.00,,,0.01,,2013-05-10 07:42:00,
2013-05-10 03:52:00,56.0,56.0,29.88,WSW,254,0.0,4.0,99,0.00,,,0.01,,2013-05-10 07:52:00,
2013-05-10 04:02:00,56.0,56.0,29.88,WSW,254,0.0,4.0,99,0.00,,,0.01,,2013-05-10 08:02:00,
2013-05-10 04:12:00,56.0,56.0,29.88,WSW,254,0.0,4.0,99,0.00,,,0.01,,2013-05-10 08:12:00,
2013-05-10 04:21:00,57.0,57.0,29.89,WSW,243,0.0,6.0,99,0.00,,,0.01,,2013-05-10 08:21:00,
2013-05-10 04:22:00,56.0,56.0,29.88,WSW,249,3.0,6.0,99,0.00,,,0.01,,2013-05-10 08:22:00,
2013-05-10 04:32:00,56.0,56.0,29.88,WSW,251,1.0,5.0,99,0.00,,,0.01,,2013-05-10 08:32:00,
2013-05-10 04:42:00,56.0,56.0,29.88,WSW,251,1.0,5.0,99,0.00,,,0.01,,2013-05-10 08:42:00,
2013-05-10 04:52:00,57.0,57.0,29.89,WSW,243,0.0,6.0,99,0.00,,,0.01,,2013-05-10 08:52:00,
2013-05-10 05:02:00,57.0,57.0,29.89,WSW,243,0.0,6.0,99,0.00,,,0.01,,2013-05-10 09:02:00,
2013-05-10 05:11:00,57.0,57.0,29.89,WSW,243,0.0,6.0,99,0.00,,,0.01,,2013-05-10 09:11:00,
2013-05-10 05:33:00,57.0,57.0,29.90,WNW,297,2.0,6.0,99,0.00,,,0.01,,2013-05-10 09:33:00,
2013-05-10 05:43:00,57.0,57.0,29.90,WNW,297,2.0,6.0,99,0.00,,,0.01,,2013-05-10 09:43:00,
2013-05-10 05:53:00,57.0,57.0,29.90,WNW,295,1.0,5.0,99,0.00,,,0.01,,2013-05-10 09:53:00,
2013-05-10 06:03:00,57.0,57.0,29.90,WNW,295,1.0,5.0,99,0.00,,,0.01,,2013-05-10 10:03:00,
2013-05-10 06:12:00,57.0,57.0,29.90,WNW,295,1.0,5.0,99,0.00,,,0.01,,2013-05-10 10:12:00,
2013-05-10 06:23:00,58.0,57.0,29.92,NNW,333,0.0,5.0,98,0.00,,,0.01,,2013-05-10 10:23:00,
2013-05-10 06:33:00,58.0,57.0,29.93,NW,316,0.0,4.0,98,0.00,,,0.01,,2013-05-10 10:33:00,
2013-05-10 06:42:00,58.0,57.0,29.93,NW,316,0.0,4.0,98,0.00,,,0.01,,2013-05-10 10:42:00,
2013-05-10 06:53:00,58.0,57.0,29.93,WNW,287,1.0,5.0,98,0.00,,,0.01,,2013-05-10 10:53:00,
2013-05-10 07:02:00,58.0,57.0,29.93,WNW,283,0.0,0.0,98,0.00,,,0.01,,2013-05-10 11:02:00,
2013-05-10 07:12:00,58.0,57.0,29.93,WNW,285,1.0,5.0,98,0.00,,,0.01,,2013-05-10 11:12:00,
2013-05-10 07:22:00,58.0,57.0,29.93,WNW,285,1.0,5.0,98,0.00,,,0.01,,2013-05-10 11:22:00,
2013-05-10 07:32:00,59.0,58.0,29.93,NNW,334,0.0,6.0,97,0.00,,,0.01,,2013-05-10 11:32:00,
2013-05-10 07:42:00,59.0,58.0,29.93,NNW,334,0.0,6.0,97,0.00,,,0.01,,2013-05-10 11:42:00,
2013-05-10 07:51:00,59.0,58.0,29.93,West,263,1.0,4.0,97,0.00,,,0.01,,2013-05-10 11:51:00,
2013-05-10 08:02:00,61.0,59.0,29.93,NW,322,1.0,5.0,94,0.00,,,0.01,,2013-05-10 12:02:00,
2013-05-10 08:12:00,61.0,59.0,29.93,NW,322,1.0,5.0,94,0.00,,,0.01,,2013-05-10 12:12:00,
2013-05-10 08:22:00,63.0,60.0,29.93,SW,229,0.0,3.0,89,0.00,,,0.01,,2013-05-10 12:22:00,
2013-05-10 08:32:00,63.0,60.0,29.93,SW,229,0.0,3.0,89,0.00,,,0.01,,2013-05-10 12:32:00,
2013-05-10 08:42:00,63.0,60.0,29.93,SW,229,0.0,3.0,89,0.00,,,0.01,,2013-05-10 12:42:00,
2013-05-10 08:52:00,65.0,59.0,29.93,NW,312,0.0,6.0,81,0.00,,,0.01,,2013-05-10 12:52:00,
2013-05-10 09:01:00,66.0,60.0,29.93,West,265,2.0,7.0,81,0.00,,,0.01,,2013-05-10 13:01:00,
2013-05-10 09:11:00,66.0,60.0,29.93,West,265,2.0,7.0,81,0.00,,,0.01,,2013-05-10 13:11:00,
2013-05-10 09:21:00,67.0,61.0,29.93,North,354,1.0,4.0,80,0.00,,,0.01,,2013-05-10 13:21:00,
2013-05-10 09:32:00,67.0,61.0,29.93,North,354,1.0,4.0,80,0.00,,,0.01,,2013-05-10 13:32:00,
2013-05-10 09:42:00,67.0,61.0,29.93,North,354,1.0,4.0,80,0.00,,,0.01,,2013-05-10 13:42:00,
2013-05-10 09:52:00,65.0,59.0,29.93,SSW,195,0.0,5.0,81,0.00,,,0.01,,2013-05-10 13:52:00,
2013-05-10 10:02:00,66.0,60.0,29.93,South,180,0.0,5.0,81,0.00,,,0.01,,2013-05-10 14:02:00,
2013-05-10 10:11:00,66.0,60.0,29.93,South,180,0.0,5.0,81,0.00,,,0.01,,2013-05-10 14:11:00,
2013-05-10 10:21:00,67.0,60.0,29.93,NE,50,0.0,1.0,79,0.00,,,0.01,,2013-05-10 14:21:00,
2013-05-10 10:32:00,69.0,61.0,29.94,NE,34,0.0,2.0,77,0.00,,,0.01,,2013-05-10 14:32:00,
2013-05-10 10:42:00,69.0,61.0,29.94,NE,34,0.0,2.0,77,0.00,,,0.01,,2013-05-10 14:42:00,
2013-05-10 10:51:00,70.0,61.0,29.94,NNE,17,3.0,8.0,74,0.00,,,0.01,,2013-05-10 14:51:00,
2013-05-10 11:02:00,70.0,61.0,29.94,NNE,17,3.0,8.0,74,0.00,,,0.01,,2013-05-10 15:02:00,
2013-05-10 11:20:00,-999.0,-99.9,29.94,NNE,31,0.0,5.0,72,0.00,,,0.01,,2013-05-10 15:20:00,
2013-05-10 11:32:00,70.0,61.0,29.94,NNE,31,0.0,5.0,72,0.00,,,0.01,,2013-05-10 15:32:00,
2013-05-10 11:42:00,72.0,62.0,29.94,North,352,0.0,5.0,70,0.00,,,0.01,,2013-05-10 15:42:00,
2013-05-10 11:53:00,72.0,62.0,29.94,North,352,0.0,5.0,70,0.00,,,0.01,,2013-05-10 15:53:00,
2013-05-10 12:02:00,73.0,61.0,29.93,NW,307,0.0,4.0,67,0.00,,,0.01,,2013-05-10 16:02:00,
2013-05-10 12:12:00,72.0,60.0,29.94,SSW,201,6.0,13.0,67,0.00,,,0.01,,2013-05-10 16:12:00,
2013-05-10 12:23:00,72.0,60.0,29.94,SSW,201,6.0,13.0,67,0.00,,,0.01,,2013-05-10 16:23:00,
2013-05-10 12:33:00,72.0,60.0,29.94,SSW,204,5.0,11.0,65,0.00,,,0.01,,2013-05-10 16:33:00,
2013-05-10 12:42:00,71.0,59.0,29.94,SSE,160,4.0,9.0,65,0.00,,,0.01,,2013-05-10 16:42:00,
2013-05-10 12:53:00,71.0,59.0,29.94,SSE,160,4.0,9.0,65,0.00,,,0.01,,2013-05-10 16:53:00,
2013-05-10 13:02:00,71.0,59.0,29.94,SSE,160,4.0,9.0,65,0.00,,,0.01,,2013-05-10 17:02:00,
2013-05-10 13:12:00,71.0,59.0,29.94,SSE,160,4.0,9.0,65,0.00,,,0.01,,2013-05-10 17:12:00,
2013-05-10 13:22:00,72.0,60.0,29.94,SSW,204,4.0,11.0,65,0.00,,,0.01,,2013-05-10 17:22:00,
2013-05-10 13:32:00,72.0,59.0,29.94,SW,216,6.0,11.0,63,0.00,,,0.01,,2013-05-10 17:32:00,
2013-05-10 13:42:00,73.0,59.0,29.93,South,177,4.0,13.0,61,0.00,,,0.01,,2013-05-10 17:42:00,
2013-05-10 13:52:00,73.0,59.0,29.93,South,177,4.0,13.0,61,0.00,,,0.01,,2013-05-10 17:52:00,
2013-05-10 14:10:00,-999.0,-99.9,29.93,SSW,202,4.0,8.0,59,0.00,,,0.01,,2013-05-10 18:10:00,
2013-05-10 14:22:00,75.0,57.0,29.94,SW,221,6.0,12.0,54,0.00,,,0.01,,2013-05-10 18:22:00,
2013-05-10 14:34:00,74.0,56.0,29.93,SSW,196,6.0,14.0,53,0.00,,,0.01,,2013-05-10 18:34:00,
2013-05-10 14:43:00,75.0,56.0,29.93,SW,235,9.0,15.0,52,0.00,,,0.01,,2013-05-10 18:43:00,
2013-05-10 14:51:00,74.0,57.0,29.93,SW,220,10.0,16.0,55,0.00,,,0.01,,2013-05-10 18:51:00,
2013-05-10 14:54:00,75.0,56.0,29.93,SW,235,9.0,15.0,52,0.00,,,0.01,,2013-05-10 18:54:00,
2013-05-10 15:02:00,75.0,56.0,29.93,SW,235,9.0,15.0,52,0.00,,,0.01,,2013-05-10 19:02:00,
2013-05-10 15:11:00,75.0,56.0,29.93,SW,235,9.0,15.0,52,0.00,,,0.01,,2013-05-10 19:11:00,
2013-05-10 15:21:00,74.0,57.0,29.93,SW,220,10.0,16.0,55,0.00,,,0.01,,2013-05-10 19:21:00,
2013-05-10 15:32:00,74.0,57.0,29.93,SW,220,10.0,16.0,55,0.00,,,0.01,,2013-05-10 19:32:00,
2013-05-10 15:42:00,74.0,57.0,29.93,SW,220,10.0,16.0,55,0.00,,,0.01,,2013-05-10 19:42:00,
2013-05-10 16:22:00,67.0,56.0,29.94,SSW,211,7.0,14.0,69,0.00,,,0.01,,2013-05-10 20:22:00,
2013-05-10 16:32:00,67.0,56.0,29.94,SSW,202,7.0,17.0,69,0.00,,,0.01,,2013-05-10 20:32:00,
2013-05-10 16:42:00,67.0,56.0,29.94,SSW,202,7.0,17.0,69,0.00,,,0.01,,2013-05-10 20:42:00,
2013-05-10 16:52:00,68.0,57.0,29.95,SW,225,11.0,15.0,67,0.00,,,0.01,,2013-05-10 20:52:00,
2013-05-10 17:02:00,67.0,56.0,29.94,SSW,211,6.0,16.0,69,0.00,,,0.01,,2013-05-10 21:02:00,
2013-05-10 17:11:00,67.0,56.0,29.94,SSW,211,6.0,16.0,69,0.00,,,0.01,,2013-05-10 21:11:00,
2013-05-10 17:25:00,67.0,56.0,29.95,SW,215,6.0,13.0,69,0.00,,,0.01,,2013-05-10 21:25:00,
2013-05-10 17:32:00,68.0,57.0,29.95,SSW,204,5.0,12.0,67,0.00,,,0.01,,2013-05-10 21:32:00,
2013-05-10 17:43:00,67.0,56.0,29.94,SSW,201,4.0,11.0,68,0.00,,,0.01,,2013-05-10 21:43:00,
2013-05-10 17:51:00,66.0,56.0,29.93,SSW,208,7.0,14.0,70,0.00,,,0.01,,2013-05-10 21:51:00,
2013-05-10 17:52:00,67.0,56.0,29.94,SSW,201,4.0,11.0,68,0.00,,,0.01,,2013-05-10 21:52:00,
2013-05-10 18:03:00,67.0,56.0,29.94,SSW,201,4.0,11.0,68,0.00,,,0.01,,2013-05-10 22:03:00,
2013-05-10 18:13:00,67.0,56.0,29.94,SSW,201,4.0,11.0,68,0.00,,,0.01,,2013-05-10 22:13:00,
2013-05-10 18:22:00,66.0,56.0,29.93,SSW,208,7.0,14.0,70,0.00,,,0.01,,2013-05-10 22:22:00,
2013-05-10 18:32:00,66.0,56.0,29.93,SSW,208,7.0,14.0,70,0.00,,,0.01,,2013-05-10 22:32:00,
2013-05-10 18:42:00,66.0,56.0,29.93,SSW,208,7.0,14.0,70,0.00,,,0.01,,2013-05-10 22:42:00,
2013-05-10 19:02:00,63.0,56.0,29.93,SSW,206,3.0,11.0,78,0.00,,,0.01,,2013-05-10 23:02:00,
2013-05-10 19:12:00,63.0,56.0,29.93,SSW,206,3.0,11.0,78,0.00,,,0.01,,2013-05-10 23:12:00,
2013-05-10 19:22:00,63.0,56.0,29.93,SW,216,5.0,10.0,79,0.00,,,0.01,,2013-05-10 23:22:00,
2013-05-10 19:33:00,62.0,56.0,29.93,SSW,206,6.0,10.0,81,0.00,,,0.01,,2013-05-10 23:33:00,
2013-05-10 19:42:00,60.0,55.0,29.95,SW,215,5.0,10.0,83,0.00,,,0.01,,2013-05-10 23:42:00,
2013-05-10 19:52:00,60.0,55.0,29.95,SW,215,5.0,10.0,83,0.00,,,0.01,,2013-05-10 23:52:00,
2013-05-10 20:02:00,60.0,55.0,29.95,SW,215,5.0,10.0,83,0.00,,,0.01,,2013-05-11 00:02:00,
2013-05-10 20:11:00,60.0,55.0,29.95,SW,215,5.0,10.0,83,0.00,,,0.01,,2013-05-11 00:11:00,
2013-05-10 20:21:00,59.0,55.0,29.96,SW,216,7.0,11.0,86,0.00,,,0.01,,2013-05-11 00:21:00,
2013-05-10 20:32:00,59.0,55.0,29.96,SSW,212,5.0,8.0,87,0.00,,,0.01,,2013-05-11 00:32:00,
2013-05-10 20:42:00,59.0,55.0,29.96,SW,221,8.0,13.0,88,0.00,,,0.01,,2013-05-11 00:42:00,
2013-05-10 20:52:00,59.0,55.0,29.96,SW,221,8.0,13.0,88,0.00,,,0.01,,2013-05-11 00:52:00,
2013-05-10 21:01:00,59.0,55.0,29.96,SW,218,5.0,11.0,88,0.00,,,0.01,,2013-05-11 01:01:00,
2013-05-10 21:11:00,59.0,55.0,29.96,SW,218,5.0,11.0,88,0.00,,,0.01,,2013-05-11 01:11:00,
2013-05-10 21:21:00,59.0,55.0,29.96,SW,215,7.0,11.0,88,0.00,,,0.01,,2013-05-11 01:21:00,
2013-05-10 21:32:00,59.0,55.0,29.96,SW,215,7.0,11.0,88,0.00,,,0.01,,2013-05-11 01:32:00,
2013-05-10 21:42:00,58.0,55.0,29.96,SSW,207,4.0,7.0,90,0.00,,,0.01,,2013-05-11 01:42:00,
2013-05-10 21:52:00,58.0,55.0,29.96,SSW,207,4.0,7.0,90,0.00,,,0.01,,2013-05-11 01:52:00,
2013-05-10 22:02:00,58.0,55.0,29.96,SSW,207,4.0,7.0,90,0.00,,,0.01,,2013-05-11 02:02:00,
2013-05-10 22:11:00,58.0,55.0,29.96,SSW,207,4.0,7.0,90,0.00,,,0.01,,2013-05-11 02:11:00,
2013-05-10 22:22:00,58.0,55.0,29.96,South,189,4.0,6.0,90,0.00,,,0.01,,2013-05-11 02:22:00,
2013-05-10 22:32:00,58.0,55.0,29.96,SSW,208,6.0,9.0,91,0.00,,,0.01,,2013-05-11 02:32:00,
2013-05-10 22:42:00,58.0,55.0,29.96,SW,218,5.0,10.0,91,0.00,,,0.01,,2013-05-11 02:42:00,
2013-05-10 22:52:00,58.0,55.0,29.96,SW,218,5.0,10.0,91,0.00,,,0.01,,2013-05-11 02:52:00,
2013-05-10 23:01:00,58.0,55.0,29.96,SW,218,5.0,10.0,91,0.00,,,0.01,,2013-05-11 03:01:00,
2013-05-10 23:11:00,58.0,55.0,29.96,SW,218,5.0,10.0,91,0.00,,,0.01,,2013-05-11 03:11:00,
2013-05-10 23:21:00,58.0,56.0,29.96,SSW,211,6.0,12.0,92,0.00,,,0.01,,2013-05-11 03:21:00,
2013-05-10 23:33:00,58.0,56.0,29.96,SSW,196,1.0,7.0,92,0.00,,,0.01,,2013-05-11 03:33:00,
2013-05-10 23:42:00,58.0,56.0,29.96,SSW,196,1.0,7.0,92,0.00,,,0.01,,2013-05-11 03:42:00,
2013-05-10 23:53:00,57.0,55.0,29.95,SSW,197,2.0,7.0,92,0.00,,,0.01,,2013-05-11 03:53:00,